This demonstration page uses our WeatherBlox Daily Observations layout. Learn more.

Left ArrowRight Arrow

Hourly Observations for February 10, 2015

Temp ( °F °C ) Dew Point ( °F °C ) Humidity (%) Winds ( mph kmh ) Pressure ( in mb ) Visibility ( mi km ) Precip ( " mm )
12:53 am 00:53 Clear 53 11.7 31 -0.6 43 43 SE 8 13 29.92 1013 10 16 0.00 0.00
1:53 am 01:53 Clear 50 10 31 -0.6 48 48 SE 9 15 29.91 1013 10 16 0.00 0.00
2:53 am 02:53 Clear 48 8.9 32 0 54 54 SE 9 15 29.91 1013 10 16 0.00 0.00
3:53 am 03:53 Clear 44 6.7 32 0 63 63 N 3 6 29.90 1013 10 16 0.00 0.00
4:53 am 04:53 Clear 42 5.6 31 -0.6 65 65 N 6 9 29.90 1012 10 16 0.00 0.00
5:53 am 05:53 Clear 42 5.6 30 -1.1 62 62 NE 3 6 29.90 1013 10 16 0.00 0.00
6:53 am 06:53 Clear 38 3.3 30 -1.1 73 73 Calm 29.93 1013 10 16 0.00 0.00
7:53 am 07:53 Sunny 38 3.3 30 -1.1 73 73 N 7 11 29.94 1014 10 16 0.00 0.00
8:53 am 08:53 Sunny 48 8.9 33 0.6 56 56 Calm 29.94 1014 10 16 0.00 0.00
9:53 am 09:53 Sunny 59 15 34 1.1 39 39 S 3 6 29.93 1014 10 16 0.00 0.00
10:53 am 10:53 Sunny 64 17.8 35 1.7 34 34 Calm 29.93 1014 10 16 0.00 0.00
11:53 am 11:53 Sunny 70 21.1 33 0.6 26 26 Calm 29.91 1013 10 16 0.00 0.00
12:53 pm 12:53 Sunny 75 23.9 32 0 21 21 SSW 6 9 29.87 1012 10 16 0.00 0.00
1:53 pm 13:53 Sunny 78 25.6 32 0 19 19 VRB 6 9 29.82 1010 10 16 0.00 0.00
2:53 pm 14:53 Sunny 81 27.2 30 -1.1 16 16 WSW 12 19 29.78 1009 10 16 0.00 0.00
3:53 pm 15:53 Sunny 81 27.2 24 -4.4 12 12 WNW 8 13 29.76 1008 10 16 0.00 0.00
4:53 pm 16:53 Sunny 81 27.2 19 -7.2 10 10 WSW 6 9 29.75 1008 10 16 0.00 0.00
5:53 pm 17:53 Sunny 80 26.7 21 -6.1 11 11 WNW 3 6 29.75 1008 10 16 0.00 0.00
6:53 pm 18:53 Clear 75 23.9 20 -6.7 12 12 Calm 29.78 1009 10 16 0.00 0.00
7:53 pm 19:53 Clear 65 18.3 24 -4.4 21 21 SE 3 6 29.81 1009 10 16 0.00 0.00
8:53 pm 20:53 Clear 63 17.2 33 0.6 33 33 SE 10 17 29.80 1009 10 16 0.00 0.00
9:53 pm 21:53 Clear 61 16.1 34 1.1 36 36 SE 10 17 29.79 1009 10 16 0.00 0.00
10:53 pm 22:53 Clear 57 13.9 35 1.7 44 44 SE 9 15 29.79 1009 10 16 0.00 0.00
11:53 pm 23:53 Clear 56 13.3 35 1.7 46 46 SE 8 13 29.78 1009 10 16 0.00 0.00

Powered by AerisWeather